Temperature
19 20 21 22 21 19 20 18 19 19 19 20 19 18 18 19 19 19 19 20 20 20 20 20 19 19 19 18 18 18 18 18 17 17 17 17 17 17 17 16 16 16 16 16
20 21 21 21 21 20 21 20 20 20 19 18 18 18 18 18 18 18 19 19 20 20 20 19 19 19 19 18 18 18 17 17 17 17 17 17 17 16 16 16 16 16 16 16
18 20 21 21 21 21 21 20 20 20 20 17 17 17 18 18 19 19 19 19 20 20 20 19 19 19 18 18 18 17 17 17 17 17 16 16 16 16 16 16 16 15 15 15
16 19 20 20 20 20 20 20 19 19 18 17 17 18 18 19 19 19 19 19 19 19 19 19 19 18 18 18 17 17 17 17 17 16 16 16 16 16 15 15 15 15 15 15
15 18 19 20 20 19 20 19 18 17 17 17 17 17 17 18 19 19 19 19 19 19 19 18 18 18 18 17 17 17 17 17 16 16 16 16 16 15 15 15 15 15 14 14
15 18 19 20 19 19 19 19 18 17 16 16 16 17 17 18 18 18 18 18 18 18 18 18 18 17 17 17 17 17 16 16 16 16 15 15 15 15 15 15 14 14 14 14
15 17 18 18 17 19 20 19 18 17 16 16 17 18 18 18 18 18 18 18 18 18 17 17 17 17 17 16 16 16 16 16 15 15 15 15 15 15 14 14 14 13 13 13
14 17 17 17 17 17 17 17 17 17 17 17 17 17 17 17 17 17 17 17 17 17 17 16 16 16 16 16 16 16 15 15 15 15 15 14 14 14 14 13 13 13 13 12
14 15 15 15 15 16 17 17 17 17 17 17 17 16 16 16 16 17 16 16 16 16 16 16 16 16 16 15 15 15 15 15 14 14 14 14 14 13 13 13 13 12 12 12
13 14 14 15 16 17 17 17 18 18 18 17 17 16 16 16 16 16 16 16 16 16 16 15 15 15 15 15 15 15 14 14 14 14 14 13 13 13 13 12 12 12 12 11
13 13 14 15 15 16 17 17 17 17 17 17 16 16 15 15 15 15 15 15 16 15 15 15 15 15 14 14 14 14 14 13 13 13 13 13 12 12 12 12 11 11 11 11
13 14 13 14 15 16 16 16 16 16 16 16 16 15 15 15 14 15 15 15 15 15 15 14 14 14 14 14 14 14 13 13 12 12 12 12 12 11 11 11 11 11 11 10
14 14 14 14 15 15 15 16 16 16 16 15 15 15 15 14 14 14 14 14 14 14 14 14 13 13 13 13 13 13 13 12 12 12 12 12 12 11 11 10 10 10 10 10
14 14 14 14 14 15 15 15 15 15 15 15 15 14 14 14 14 14 14 13 13 13 13 13 13 13 13 13 13 13 12 12 12 12 12 11 11 11 11 11 10 9 9 9
14 14 14 14 14 14 14 14 14 14 14 14 14 14 14 14 13 13 13 13 13 13 13 12 12 12 12 12 12 12 12 12 12 11 11 11 11 10 10 10 9 9 9 8
14 14 14 14 14 13 14 14 14 13 13 13 13 13 13 13 12 12 12 12 12 12 12 12 12 12 12 12 12 12 12 11 11 11 11 11 10 10 9 9 9 8 8 8
13 13 13 13 13 13 13 13 13 13 13 13 12 12 12 12 12 12 12 12 12 12 12 12 12 12 11 11 12 11 11 11 11 10 10 10 10 9 9 9 8 8 8 7
14 14 14 14 14 13 13 13 13 12 12 12 12 12 12 12 12 11 11 11 11 11 11 11 11 11 11 11 11 11 11 10 10 10 10 9 9 9 9 8 8 8 7 7
13 13 13 13 13 13 13 12 12 12 12 11 11 11 11 11 11 11 11 11 11 11 11 11 11 11 11 10 10 10 10 10 10 9 9 9 9 8 8 8 7 7 7 6
13 13 13 12 12 13 12 12 11 11 11 11 11 11 11 11 11 10 11 11 10 10 10 10 10 10 10 10 10 10 10 10 9 9 9 8 8 8 8 7 7 7 6 6
12 12 12 12 12 12 12 12 11 11 11 11 11 11 10 10 10 10 10 10 10 10 10 10 10 10 10 10 9 9 9 9 9 9 9 8 8 8 7 7 7 6 6 6
11 11 11 12 12 11 11 11 11 11 10 10 10 10 10 10 10 10 10 10 10 10 10 10 10 9 9 9 9 9 9 9 9 8 8 8 8 7 7 7 6 6 6 5
11 11 11 11 11 11 11 11 10 10 10 10 10 10 10 10 10 10 9 9 9 9 9 9 9 9 9 9 9 9 9 8 8 8 8 8 7 7 7 7 6 6 5 5
10 10 10 10 10 10 10 10 10 10 10 10 9 9 9 9 9 9 9 9 9 9 9 8 8 8 8 8 8 8 8 8 8 8 7 7 7 7 6 6 6 5 5 5
9 10 10 10 10 10 10 10 9 9 9 9 9 9 9 9 9 8 8 8 8 8 8 8 8 8 8 8 8 8 8 8 7 7 7 7 7 6 6 6 5 5 5 5
9 9 9 9 10 10 9 9 9 9 9 9 8 8 8 8 8 8 8 8 8 8 8 7 7 7 7 7 7 7 7 7 7 7 7 6 6 6 6 5 5 5 5 4
9 9 9 9 9 9 9 9 9 9 9 9 8 8 8 8 8 8 8 8 7 7 7 7 7 7 7 7 7 7 7 7 7 6 6 6 6 6 5 5 5 5 5 4
Wind_Speed
5 5 5 5 7 8 7 10 10 10 10 10 10 8 6 5 6 6 5 5 5 5 4 4 4 3 3 3 3 4 4 4 2 2 3 3 3 3 3 3 3 3 3 3
1 2 4 3 5 9 7 6 6 4 8 7 4 4 5 7 8 7 6 5 5 5 5 4 4 4 3 3 3 4 4 3 3 3 4 4 4 4 4 4 4 5 5 4
3 2 4 3 5 7 6 5 8 9 9 5 6 8 9 8 8 7 7 6 6 5 5 4 4 4 4 3 4 5 4 4 4 5 5 4 5 5 5 5 5 6 5 5
4 4 5 7 3 4 5 3 5 5 5 9 8 6 4 5 8 7 6 6 5 4 3 3 4 4 5 5 5 5 5 5 5 5 5 5 6 6 5 5 6 6 6 6
4 5 2 3 1 3 4 2 3 5 6 7 9 6 2 2 4 6 6 6 5 4 4 4 4 5 6 5 5 6 5 5 5 5 6 6 6 6 5 6 7 7 7 8
5 5 6 6 2 1 3 3 3 6 9 11 10 6 5 6 7 7 7 6 6 5 6 6 4 5 7 6 6 5 4 5 5 6 6 6 6 6 6 7 7 8 9 9
4 3 5 4 3 2 5 7 3 7 9 11 8 6 6 9 8 7 8 8 7 7 6 5 5 6 8 7 6 5 6 7 7 7 6 6 7 7 8 8 9 9 10 9
4 4 6 2 1 5 5 2 3 5 7 7 6 7 9 10 9 9 9 8 8 8 7 6 6 7 8 6 5 6 8 8 8 8 7 7 8 8 8 8 9 9 9 9
5 6 4 3 4 4 2 2 2 5 6 9 9 8 9 9 10 9 9 8 7 9 9 7 6 6 8 6 6 8 9 9 9 9 9 8 8 8 8 7 7 7 7 7
1 3 3 3 3 3 1 2 2 6 8 9 10 10 10 10 9 9 8 8 7 9 9 7 6 6 6 6 7 9 10 9 8 9 10 9 8 7 7 6 6 6 7 7
1 3 3 3 2 2 3 5 6 7 7 9 12 11 10 10 9 8 8 7 7 8 8 7 6 6 6 6 8 9 10 9 9 9 9 10 10 8 7 6 4 6 5 5
5 5 4 2 1 1 4 5 6 8 8 8 10 11 10 9 8 8 7 7 8 8 8 7 7 7 5 5 7 10 9 8 7 7 8 9 10 10 16 12 15 14 11 9
3 1 2 1 1 2 3 5 6 8 9 9 9 10 10 9 8 9 9 8 8 8 8 8 8 7 6 6 7 9 9 8 7 7 7 8 8 9 9 11 16 16 14 13
2 2 1 1 2 3 5 7 8 9 8 9 10 10 11 10 10 10 9 8 8 9 9 8 8 7 6 6 8 9 9 9 8 7 7 7 7 7 8 8 8 7 10 12
2 2 4 3 5 5 6 8 10 9 9 9 9 10 11 11 10 9 9 9 9 10 9 8 8 7 5 7 9 9 8 7 7 7 7 7 8 8 8 9 8 6 6 7
2 4 5 7 7 7 8 9 9 9 9 9 10 11 11 11 11 9 9 9 9 9 7 8 7 6 5 7 9 8 8 11 10 8 8 8 8 8 8 7 7 6 6 5
5 6 7 8 8 7 7 7 8 9 9 10 11 13 13 12 11 10 9 8 9 8 7 7 6 6 7 8 8 8 8 9 12 9 7 7 7 7 7 7 6 6 5 4
4 5 7 10 9 8 8 8 9 10 10 11 12 13 13 12 11 10 8 8 9 9 7 6 6 7 8 8 8 7 8 7 7 7 7 7 7 6 6 6 7 7 5 5
3 6 7 8 8 9 9 9 9 10 11 11 12 12 11 11 10 10 9 9 9 7 4 5 8 8 8 8 9 7 8 8 8 7 7 8 7 6 6 6 6 6 6 5
6 7 9 9 9 9 10 10 10 10 10 11 12 12 11 10 10 10 10 8 5 3 4 6 7 7 7 8 9 7 8 8 8 7 7 6 6 6 5 6 6 5 5 4
7 8 9 10 9 9 9 10 11 11 10 11 12 12 11 9 8 8 8 7 4 4 6 8 6 5 5 6 8 6 7 7 7 6 6 6 6 5 5 5 5 4 4 4
7 8 9 9 10 9 9 9 10 11 11 11 11 11 11 10 9 8 7 5 4 6 5 5 5 6 7 7 6 6 6 6 6 6 5 5 5 5 5 5 4 3 3 3
7 8 9 9 10 10 10 9 10 10 11 10 11 11 10 8 6 7 6 3 4 7 6 5 8 11 10 7 6 6 6 6 6 6 5 5 5 5 5 4 4 3 3 3
8 8 8 9 10 11 11 9 9 9 10 10 9 9 9 8 6 5 5 7 8 9 7 8 11 12 10 6 6 6 6 6 5 5 5 5 4 4 4 3 3 3 3 3
9 9 9 10 10 9 10 10 11 10 10 9 9 8 7 6 6 6 6 7 9 9 7 8 11 10 7 6 6 6 5 5 5 5 5 4 4 4 3 3 3 3 2 2
8 7 7 7 7 7 8 8 8 7 8 9 7 6 6 6 7 7 6 7 9 9 7 5 5 6 5 5 5 5 5 5 5 4 4 4 4 3 3 3 3 3 2 3
8 7 7 7 7 7 7 8 8 8 8 9 8 6 6 6 7 7 8 7 6 6 5 4 4 4 5 5 5 4 4 4 4 4 3 3 3 3 3 3 3 3 3 3
Wind_Direction
210 208 173 178 181 169 171 177 179 216 216 235 219 207 188 167 153 144 143 139 140 140 135 130 124 115 114 114 115 117 116 114 121 123 114 104 94 82 77 76 76 73 71 64
220 205 175 176 183 179 185 175 192 195 234 238 192 157 161 166 161 158 156 149 143 138 134 136 135 128 120 116 118 114 115 118 110 103 100 98 91 82 76 72 68 67 66 68
201 202 113 207 205 182 187 186 172 197 222 171 167 180 182 176 169 164 161 153 147 148 147 151 144 130 120 116 116 114 111 110 104 100 94 90 89 79 71 67 71 72 69 70
137 118 186 236 251 189 170 196 200 203 190 175 175 157 147 157 163 160 154 148 141 138 135 126 119 115 111 112 117 114 108 105 104 103 98 92 89 83 75 68 68 69 64 71
125 153 229 289 237 151 154 229 202 179 163 142 120 95 70 160 148 150 143 135 133 128 124 116 116 116 111 108 106 105 104 102 105 107 105 101 98 95 90 87 77 71 67 67
122 140 201 230 260 272 121 259 216 166 161 152 137 156 205 165 134 123 118 114 112 110 106 104 103 114 112 107 103 102 104 101 101 103 105 105 105 100 90 88 85 81 71 64
136 167 244 255 287 126 161 233 200 170 169 166 176 188 154 137 128 123 115 109 106 104 98 95 102 109 105 99 95 94 96 96 96 96 96 99 98 93 94 92 88 83 79 66
137 158 235 309 71 174 219 251 164 169 169 164 136 115 123 129 127 121 115 111 109 106 96 86 94 105 102 98 98 96 95 92 88 87 90 93 94 92 92 96 92 87 82 72
182 202 245 279 255 273 237 202 187 161 153 145 135 132 130 130 127 121 118 114 109 108 100 88 85 101 109 105 104 102 96 92 87 85 82 85 91 96 93 91 95 93 88 80
261 279 288 300 304 315 258 208 172 150 144 139 138 137 133 131 126 121 117 116 114 112 108 100 91 92 102 107 106 107 104 98 92 91 85 77 74 77 87 88 96 97 95 91
251 277 310 324 345 357 57 87 107 114 123 133 134 135 135 132 128 125 121 117 114 113 112 108 102 96 97 107 110 108 105 101 95 90 94 85 73 61 70 59 85 106 103 103
213 218 193 249 306 71 104 111 122 118 110 115 128 132 128 125 122 117 112 111 108 104 104 102 100 96 92 100 115 115 109 105 102 101 100 100 96 79 59 67 69 72 81 93
221 198 169 186 60 80 116 117 119 118 123 120 116 123 124 122 120 114 107 107 109 108 105 103 98 92 87 93 105 111 116 114 110 109 109 109 107 106 96 69 61 62 68 80
209 137 140 190 145 111 115 112 106 101 102 111 117 118 119 116 115 112 110 109 108 105 102 101 97 88 84 95 101 105 110 114 115 114 113 112 110 107 107 106 92 66 55 67
218 182 173 142 123 119 119 116 113 113 112 111 115 117 119 118 113 108 106 106 103 98 97 99 97 89 88 99 103 107 110 112 111 112 111 111 108 105 103 102 101 96 86 68
134 121 133 137 134 130 123 123 127 129 128 126 122 118 114 111 107 104 101 104 106 103 100 99 96 97 103 107 107 103 104 112 112 112 113 112 112 112 110 108 106 102 97 94
154 160 154 151 148 141 132 131 134 132 128 126 125 119 115 112 109 103 98 97 98 97 95 97 98 99 102 107 109 111 110 112 112 110 111 114 116 117 117 117 114 107 97 89
189 180 167 158 152 141 130 125 125 125 125 125 123 122 124 123 120 114 108 103 97 87 78 86 97 101 100 104 106 110 111 111 112 114 111 109 111 114 116 116 116 111 101 92
125 139 141 139 136 133 129 125 124 122 123 124 123 121 119 117 116 116 112 105 101 95 74 84 99 101 104 110 111 110 114 114 111 109 110 111 107 108 112 115 116 117 116 109
100 117 125 120 118 122 125 123 123 122 122 122 118 115 113 113 115 112 104 93 88 105 111 106 104 103 107 115 114 115 117 118 118 116 115 116 116 116 117 120 122 123 121 119
116 117 119 117 113 114 120 124 125 123 120 120 121 121 116 109 107 107 105 95 63 82 102 106 105 107 108 116 114 117 118 120 122 125 125 124 122 121 122 124 127 129 129 126
119 118 118 117 117 116 115 116 119 119 118 117 116 116 114 110 102 91 82 99 106 105 105 103 106 110 113 114 115 118 121 123 124 124 124 127 130 132 134 135 133 131 132 135
114 114 115 115 115 115 109 110 115 119 119 120 121 121 119 115 112 113 104 90 100 101 98 101 111 110 106 103 110 114 118 122 125 127 128 129 133 138 141 140 138 139 146 154
110 109 111 112 110 113 113 110 108 109 110 109 111 116 117 112 92 79 104 109 104 100 95 106 109 106 101 100 105 108 111 115 120 124 126 126 129 134 138 140 141 148 160 164
111 111 113 116 116 116 114 111 107 105 104 103 101 100 101 107 115 116 110 109 108 100 97 99 102 102 101 105 107 109 112 117 123 127 129 133 138 140 143 147 151 155 162 174
108 109 110 108 112 118 120 118 114 114 115 111 102 98 98 99 105 108 106 106 103 102 102 101 101 98 99 104 106 108 111 117 119 122 131 136 141 144 148 155 159 166 173 183
99 101 102 101 100 107 115 117 119 119 120 121 114 107 109 111 110 108 106 104 102 100 100 99 100 104 105 105 104 104 107 113 119 124 129 135 144 153 162 166 173 178 186 192
Height
1474 1471 1472 1473 1476 1482 1485 1491 1499 1496 1493 1483 1479 1479 1481 1483 1485 1487 1489 1491 1493 1496 1499 1501 1504 1505 1506 1508 1509 1509 1510 1511 1512 1513 1514 1515 1516 1517 1517 1518 1518 1518 1518 1518
1473 1470 1470 1472 1472 1476 1478 1481 1484 1484 1485 1475 1475 1478 1480 1482 1484 1486 1488 1491 1493 1496 1499 1501 1503 1504 1506 1507 1508 1509 1509 1511 1512 1513 1514 1515 1516 1517 1517 1517 1517 1517 1518 1518
1482 1473 1472 1481 1472 1473 1473 1473 1477 1482 1476 1473 1476 1477 1478 1481 1483 1485 1488 1491 1493 1496 1498 1501 1502 1504 1505 1507 1508 1509 1510 1511 1512 1514 1514 1516 1516 1517 1517 1517 1517 1517 1518 1518
1484 1480 1490 1477 1464 1464 1468 1469 1469 1469 1469 1469 1471 1474 1477 1480 1482 1484 1488 1491 1494 1496 1499 1501 1502 1504 1505 1506 1508 1509 1510 1512 1513 1514 1515 1516 1517 1517 1518 1518 1518 1518 1518 1518
1488 1488 1482 1470 1464 1465 1468 1470 1466 1467 1468 1470 1473 1476 1479 1481 1482 1485 1488 1491 1493 1496 1499 1500 1502 1504 1505 1506 1508 1509 1510 1512 1513 1514 1515 1516 1517 1518 1518 1519 1519 1520 1520 1520
1485 1486 1488 1472 1463 1462 1465 1471 1464 1464 1466 1469 1472 1479 1478 1478 1482 1485 1488 1491 1493 1496 1498 1500 1502 1503 1505 1506 1508 1509 1511 1512 1514 1515 1516 1517 1518 1519 1519 1520 1520 1521 1521 1521
1481 1482 1477 1465 1461 1462 1475 1470 1461 1462 1464 1467 1468 1470 1472 1476 1480 1484 1487 1490 1493 1495 1497 1499 1502 1504 1505 1506 1508 1510 1512 1513 1514 1516 1517 1518 1519 1519 1520 1521 1522 1522 1523 1524
1481 1483 1480 1462 1461 1465 1464 1458 1458 1460 1462 1465 1467 1470 1472 1476 1479 1483 1487 1490 1493 1495 1498 1500 1502 1504 1505 1507 1509 1510 1512 1513 1515 1516 1518 1519 1519 1520 1522 1523 1524 1524 1525 1526
1472 1473 1465 1462 1461 1460 1459 1458 1458 1459 1462 1464 1467 1470 1474 1477 1480 1484 1487 1491 1493 1495 1498 1500 1503 1505 1506 1507 1509 1511 1512 1514 1516 1517 1518 1520 1521 1522 1524 1525 1525 1526 1527 1528
1468 1464 1462 1460 1459 1458 1458 1458 1458 1459 1462 1464 1467 1471 1475 1478 1482 1485 1488 1491 1494 1496 1498 1500 1503 1505 1507 1508 1510 1511 1513 1515 1517 1518 1520 1521 1523 1524 1526 1527 1528 1529 1530 1531
1466 1463 1461 1459 1458 1458 1458 1458 1459 1461 1463 1466 1468 1473 1476 1480 1483 1486 1489 1491 1494 1497 1498 1501 1503 1505 1508 1509 1511 1512 1514 1516 1518 1520 1521 1523 1525 1527 1528 1529 1531 1532 1533 1534
1463 1460 1460 1460 1459 1459 1459 1460 1461 1463 1465 1468 1470 1474 1478 1481 1484 1487 1490 1492 1494 1497 1500 1502 1504 1506 1508 1510 1512 1514 1515 1517 1520 1522 1523 1525 1527 1528 1530 1532 1533 1534 1535 1536
1458 1458 1458 1459 1459 1460 1461 1462 1463 1465 1467 1469 1473 1476 1479 1482 1485 1488 1491 1494 1496 1498 1501 1504 1506 1508 1510 1512 1514 1515 1517 1519 1522 1524 1526 1527 1529 1531 1532 1534 1536 1537 1538 1539
1456 1457 1458 1459 1459 1461 1462 1463 1465 1467 1469 1471 1474 1477 1481 1484 1487 1489 1492 1496 1498 1500 1503 1506 1508 1510 1512 1514 1516 1517 1519 1522 1524 1526 1528 1530 1532 1533 1535 1536 1538 1539 1541 1542
1455 1456 1457 1458 1460 1461 1463 1464 1465 1468 1470 1473 1476 1479 1482 1485 1488 1491 1494 1498 1500 1502 1505 1507 1510 1512 1514 1516 1518 1520 1521 1523 1526 1528 1530 1532 1534 1536 1538 1539 1540 1542 1543 1544
1454 1455 1457 1458 1460 1462 1463 1465 1467 1469 1471 1474 1477 1481 1484 1487 1491 1494 1497 1500 1503 1505 1507 1510 1512 1514 1516 1518 1520 1522 1524 1526 1528 1530 1532 1534 1536 1538 1540 1541 1543 1544 1546 1546
1453 1454 1456 1458 1460 1462 1464 1466 1468 1470 1473 1476 1479 1481 1485 1489 1493 1496 1499 1502 1505 1508 1510 1513 1515 1516 1518 1520 1522 1524 1526 1528 1530 1532 1534 1536 1538 1540 1542 1543 1545 1546 1547 1548
1452 1453 1455 1457 1460 1462 1465 1467 1470 1472 1474 1478 1480 1483 1487 1491 1495 1498 1502 1505 1508 1510 1513 1515 1517 1519 1521 1523 1525 1526 1528 1530 1532 1534 1536 1538 1540 1542 1544 1545 1547 1548 1549 1550
1452 1454 1456 1459 1461 1463 1465 1468 1471 1474 1477 1480 1482 1486 1490 1493 1497 1501 1504 1508 1510 1512 1515 1518 1520 1522 1524 1526 1528 1529 1531 1533 1535 1537 1539 1540 1542 1544 1546 1547 1548 1549 1550 1551
1452 1455 1457 1460 1463 1465 1468 1471 1473 1476 1479 1482 1485 1489 1493 1497 1500 1504 1507 1510 1513 1515 1518 1520 1523 1525 1527 1529 1531 1532 1534 1536 1537 1539 1541 1542 1544 1546 1547 1549 1550 1551 1552 1553
1454 1456 1459 1461 1464 1467 1470 1473 1476 1479 1482 1486 1489 1492 1496 1500 1503 1507 1509 1512 1515 1518 1521 1523 1525 1527 1529 1531 1533 1535 1537 1538 1540 1541 1543 1544 1546 1547 1549 1550 1551 1552 1553 1554
1456 1458 1460 1463 1466 1469 1473 1476 1479 1482 1486 1489 1492 1496 1499 1503 1506 1509 1512 1515 1518 1521 1523 1525 1527 1529 1531 1533 1535 1537 1539 1540 1542 1543 1544 1546 1547 1549 1550 1551 1552 1553 1554 1555
1458 1460 1463 1465 1468 1472 1475 1479 1482 1486 1489 1492 1495 1499 1502 1505 1508 1511 1514 1518 1520 1523 1525 1527 1529 1531 1533 1535 1537 1539 1540 1542 1543 1544 1546 1547 1548 1550 1551 1552 1553 1554 1555 1555
1461 1463 1466 1469 1472 1475 1478 1482 1485 1489 1492 1496 1499 1502 1505 1508 1511 1515 1517 1520 1522 1525 1527 1529 1531 1533 1535 1537 1539 1540 1542 1543 1544 1545 1547 1548 1549 1550 1552 1552 1553 1554 1555 1555
1464 1466 1469 1472 1475 1478 1481 1485 1488 1492 1495 1499 1502 1505 1509 1512 1514 1517 1520 1522 1525 1527 1530 1532 1534 1536 1538 1539 1541 1542 1543 1544 1545 1546 1547 1549 1550 1551 1552 1553 1553 1553 1554 1554
1467 1470 1473 1476 1479 1481 1485 1488 1491 1495 1498 1501 1505 1508 1512 1515 1518 1520 1523 1525 1528 1530 1532 1534 1536 1538 1540 1541 1542 1543 1544 1545 1546 1547 1548 1549 1550 1551 1552 1552 1553 1553 1553 1553
1471 1474 1477 1480 1483 1486 1489 1492 1495 1498 1502 1505 1508 1512 1515 1518 1521 1523 1526 1528 1530 1532 1535 1537 1538 1540 1541 1543 1544 1545 1546 1547 1547 1548 1549 1549 1550 1551 1551 1552 1552 1552 1552 1552